Change the Weather History Date:

Sunday, December 9, 2012

  Actual Average (K3TH) Record (K3TH)
Temperature  
Mean Temperature 14 °F -  
Max Temperature 23 °F 32 °F 36 °F (1999)
Min Temperature 8 °F 27 °F 19 °F (1997)
Degree Days  
Heating Degree Days 50    
Moisture  
Dew Point 12 °F    
Average Humidity 87    
Maximum Humidity 96    
Minimum Humidity 79    
Precipitation  
Precipitation 0.04 in - - ()
Sea Level Pressure  
Sea Level Pressure 30.15 in    
Wind  
Wind Speed 6 mph (WSW)    
Max Wind Speed 12 mph    
Max Gust Speed 24 mph    
Visibility 3 miles    
Events Rain , Snow    
Averages and records for this station are not official NWS values.
T = Trace of Precipitation, MM = Missing Value Source: NWS Daily Summary

Daily Weather History Graph

Daily Weather History Graph

Search for Another Location

Airport or City:

Trip Planner

Search our weather history database for the weather conditions in past years. The results will help you decide how hot, cold, wet, or windy it might be!

Date:

Astronomy

Dec. 09, 2012 Rise Set
Actual Time 7:18 AM PST 3:51 PM PST
Civil Twilight 6:43 AM PST 4:27 PM PST
Nautical Twilight 6:04 AM PST 5:06 PM PST
Astronomical Twilight 5:26 AM PST 5:43 PM PST
Moon 2:44 AM PST (12/9) 1:12 PM PST (12/9)
Length of Visible Light 9h 44m
Length of Day
8h 32m
Waning Crescent, 17% of the Moon is Illuminated
Dec 9
Waning Crescent
Dec 13
New
Dec 19
First Quarter
Dec 28
Full
Jan 4
Last Quarter

Hourly Weather History & Observations

Time (PST) Temp. Windchill Dew Point Humidity Pressure Visibility Wind Dir Wind Speed Gust Speed Precip Events Conditions
12:53 AM 9.0 °F 0.6 °F 5.0 °F 84% 30.29 in 10.0 mi NW 4.6 mph - N/A   Clear
1:25 AM 10.4 °F 0.8 °F 5.0 °F 79% 30.05 in 10.0 mi WNW 5.8 mph - N/A   Mostly Cloudy
1:53 AM 10.9 °F - 6.1 °F 81% 30.29 in 10.0 mi Calm Calm - N/A   Overcast
2:53 AM 10.0 °F 1.8 °F 6.1 °F 84% 30.32 in 10.0 mi West 4.6 mph - N/A   Overcast
3:53 AM 10.0 °F - 6.1 °F 84% 30.33 in 10.0 mi Calm Calm - N/A   Overcast
4:53 AM 10.0 °F 3.6 °F 6.1 °F 84% 30.35 in 10.0 mi Variable 3.5 mph - N/A   Overcast
5:53 AM 10.0 °F 0.4 °F 7.0 °F 87% 30.35 in 10.0 mi WSW 5.8 mph - N/A   Overcast
6:53 AM 9.0 °F -0.9 °F 7.0 °F 92% 30.37 in 10.0 mi SSW 5.8 mph - N/A   Mostly Cloudy
7:26 AM 8.6 °F 0.1 °F 6.8 °F 92% 30.12 in 10.0 mi SSW 4.6 mph - N/A   Mostly Cloudy
7:42 AM 8.6 °F -1.3 °F 6.8 °F 92% 30.12 in 3.0 mi SSW 5.8 mph - N/A   Overcast
7:53 AM 9.0 °F -0.9 °F 8.1 °F 96% 30.38 in 3.0 mi Variable 5.8 mph - N/A   Overcast
8:53 AM 10.0 °F 1.8 °F 9.0 °F 95% 30.37 in 7.0 mi Variable 4.6 mph - 0.00 in   Overcast
9:53 AM 10.9 °F 0.2 °F 9.0 °F 92% 30.38 in 10.0 mi SSW 6.9 mph - N/A   Overcast
10:53 AM 12.9 °F 6.9 °F 10.9 °F 92% 30.38 in 4.0 mi Variable 3.5 mph - N/A   Overcast
11:53 AM 14.0 °F 3.9 °F 10.9 °F 88% 30.35 in 3.0 mi Variable 6.9 mph - 0.00 in Snow Light Snow
12:53 PM 15.1 °F 7.7 °F 12.0 °F 88% 30.33 in 6.0 mi Variable 4.6 mph - 0.00 in Snow Light Snow
1:07 PM 15.8 °F 5.1 °F 10.4 °F 79% 30.07 in 10.0 mi WSW 8.1 mph - 0.00 in   Overcast
1:53 PM 14.0 °F 2.9 °F 10.9 °F 88% 30.32 in 2.5 mi WSW 8.1 mph 20.7 mph 0.00 in Snow Light Snow
2:04 PM 15.8 °F 5.1 °F 10.4 °F 79% 30.07 in 1.2 mi WSW 8.1 mph 20.7 mph 0.00 in Snow Light Snow
2:17 PM 15.8 °F 4.2 °F 12.2 °F 86% 30.06 in 0.8 mi SW 9.2 mph - 0.00 in Snow Light Snow
2:30 PM 14.0 °F 0.5 °F 10.4 °F 86% 30.06 in 1.2 mi SW 11.5 mph 19.6 mph 0.00 in Snow Light Snow
2:32 PM 14.0 °F 1.2 °F 10.4 °F 86% 30.06 in 1.5 mi SW 10.4 mph 19.6 mph 0.00 in Snow Light Snow
2:39 PM 14.0 °F 0.5 °F 10.4 °F 86% 30.06 in 2.0 mi SW 11.5 mph 19.6 mph 0.00 in Snow Light Snow
2:53 PM 14.0 °F 3.9 °F 10.9 °F 88% 30.31 in 1.8 mi SW 6.9 mph 17.3 mph 0.00 in Snow Light Snow
2:58 PM 14.0 °F 3.9 °F 10.4 °F 86% 30.05 in 1.2 mi SW 6.9 mph - 0.00 in Snow Light Snow
3:43 PM 14.0 °F 5.1 °F 12.2 °F 93% 30.06 in 2.0 mi Variable 5.8 mph - 0.00 in Snow Light Snow
3:53 PM 14.0 °F 2.0 °F 10.9 °F 88% 30.31 in 2.0 mi SW 9.2 mph 18.4 mph 0.00 in Snow Light Snow
4:03 PM 15.8 °F 5.1 °F 12.2 °F 86% 30.05 in 1.8 mi WSW 8.1 mph 20.7 mph 0.00 in Snow Light Snow
4:18 PM 15.8 °F 3.4 °F 12.2 °F 86% 30.05 in 1.2 mi SW 10.4 mph 24.2 mph 0.00 in Snow Light Snow
4:53 PM 15.1 °F 7.7 °F 12.0 °F 88% 30.27 in 1.8 mi Variable 4.6 mph - 0.00 in Snow Light Snow
5:02 PM 15.8 °F 10.2 °F 12.2 °F 86% 30.02 in 2.0 mi Variable 3.5 mph - 0.00 in Snow Light Snow
5:25 PM 15.8 °F 7.2 °F 12.2 °F 86% 30.03 in 1.5 mi Variable 5.8 mph - 0.00 in Snow Light Snow
5:45 PM 15.8 °F 8.6 °F 14.0 °F 93% 30.02 in 1.8 mi SW 4.6 mph - 0.00 in Rain Light Freezing Rain
5:53 PM 16.0 °F 10.4 °F 14.0 °F 92% 30.27 in 1.8 mi Variable 3.5 mph - 0.00 in Rain Light Freezing Rain
6:05 PM 17.6 °F 9.3 °F 14.0 °F 86% 30.02 in 1.0 mi Variable 5.8 mph - 0.00 in Rain Light Freezing Rain
6:12 PM 17.6 °F 10.7 °F 14.0 °F 86% 30.03 in 0.8 mi Variable 4.6 mph - 0.00 in Rain Light Freezing Rain
6:22 PM 17.6 °F 8.2 °F 14.0 °F 86% 30.02 in 1.2 mi Variable 6.9 mph - 0.00 in Rain Light Freezing Rain
6:30 PM 17.6 °F 9.3 °F 14.0 °F 86% 30.02 in 2.0 mi SW 5.8 mph - 0.00 in Rain Light Freezing Rain
6:40 PM 17.6 °F 9.3 °F 14.0 °F 86% 30.02 in 1.2 mi Variable 5.8 mph - 0.00 in Rain Light Freezing Rain
6:53 PM 18.0 °F 7.7 °F 14.0 °F 84% 30.25 in 2.0 mi West 8.1 mph - 0.00 in Rain Light Freezing Rain
7:11 PM 17.6 °F 9.3 °F 14.0 °F 86% 30.02 in 1.2 mi Variable 5.8 mph - 0.00 in Rain Light Freezing Rain
7:25 PM 17.6 °F 6.4 °F 15.8 °F 93% 30.01 in 1.2 mi WSW 9.2 mph 16.1 mph 0.00 in Snow Light Snow
7:46 PM 19.4 °F 10.4 °F 15.8 °F 86% 30.01 in 1.2 mi WSW 6.9 mph 16.1 mph 0.00 in Rain Light Freezing Rain
7:53 PM 19.0 °F 8.2 °F 15.1 °F 85% 30.23 in 1.5 mi WSW 9.2 mph 19.6 mph 0.01 in Rain Light Freezing Rain
8:18 PM 19.4 °F 10.4 °F 15.8 °F 86% 29.99 in 1.0 mi Variable 6.9 mph - 0.00 in Rain Light Freezing Rain
8:53 PM 19.9 °F 12.1 °F 16.0 °F 85% 30.21 in 1.2 mi Variable 5.8 mph - 0.00 in Rain Light Freezing Rain
9:23 PM 19.4 °F 11.5 °F 17.6 °F 93% 29.99 in 1.5 mi Variable 5.8 mph - 0.00 in Snow Light Snow
9:38 PM 19.4 °F 9.5 °F 15.8 °F 86% 29.99 in 1.2 mi WNW 8.1 mph - 0.01 in Snow Light Snow
9:53 PM 19.9 °F 12.1 °F 16.0 °F 85% 30.21 in 1.2 mi Variable 5.8 mph - 0.01 in Snow Light Snow
10:05 PM 19.4 °F 10.4 °F 15.8 °F 86% 30.00 in 1.2 mi NW 6.9 mph - 0.00 in Rain Light Freezing Rain
10:27 PM 21.2 °F 11.7 °F 17.6 °F 86% 29.99 in 1.0 mi NW 8.1 mph 16.1 mph 0.00 in Snow Light Snow
10:53 PM 21.0 °F 12.4 °F 17.1 °F 85% 30.19 in 0.8 mi Variable 6.9 mph 16.1 mph 0.01 in Snow Light Snow
11:04 PM 21.2 °F 10.9 °F 17.6 °F 86% 29.98 in 1.0 mi NW 9.2 mph 16.1 mph 0.00 in Snow Light Snow
11:23 PM 21.2 °F 10.9 °F 17.6 °F 86% 29.98 in 0.8 mi NW 9.2 mph 20.7 mph 0.00 in Snow Light Snow
11:40 PM 21.2 °F 11.7 °F 17.6 °F 86% 29.98 in 1.0 mi NW 8.1 mph 16.1 mph 0.01 in   Mist
11:53 PM 23.0 °F 14.7 °F 19.0 °F 85% 30.15 in 1.0 mi NW 6.9 mph - 0.01 in Snow Light Snow